Flag for Netherlands Weather past 2 weeks in Hoofddorp, Netherlands

Now
54 °F

Clear.


Feels Like: 54 °F
Forecast: 49 / 70 °F
Wind: 2 mph from Northwest

Location: Amsterdam Schiphol Airport

Current Time: Jun 3, 2015 at 11:47:26 PM

Latest Report: Jun 3, 2015 at 10:55 PM


Visibility: 10 mi

Pressure: 30.33 "Hg

Humidity: 82%

Dew point: 48 °F

Location of HoofddorpLocation

Historic Weather in Hoofddorp — Graph

°F

Hoofddorp temperature yesterday

Maximum temperature yesterday: 63 °F (at 8:55 PM)
Minimum temperature yesterday: 52 °F (at 7:25 AM)
Average temperature yesterday: 58 °F

Past Weeks' High & Low Weather Summary

 TemperatureHumidityPressure
High66 °F (May 22, 1:55 PM)100% (May 23, 9:25 AM)30.33 "Hg (May 23, 9:25 AM)
Low41 °F (May 24, 2:25 AM)30% (May 24, 5:25 PM)29.65 "Hg (May 29, 5:25 PM)
Average55 °F74%30.01 "Hg
* Reported May 19 10:25 PM — Jun 3 10:25 PM, Hoofddorp, Weather by CustomWeather, © 2015

Note: Actual official high and low records may vary slightly from our data, if they occured in-between our weather recording intervals... More about our weather records

Advertising

Hoofddorp weather history for previous 24 hours

 ConditionsComfort  
Time TempWeatherWind HumidityBarometerVisibility
10:25 PM
Wed, Jun 3
54 °FPassing clouds.3 mph82%30.33 "HgN/A
9:55 PM54 °FPassing clouds.5 mph82%30.30 "HgN/A
9:25 PM55 °FSunny.6 mph77%30.30 "Hg10 mi
8:55 PM57 °FPassing clouds.6 mph72%30.30 "HgN/A
8:25 PM59 °FPassing clouds.7 mph72%30.27 "HgN/A
7:55 PM59 °FPassing clouds.7 mph68%30.27 "HgN/A
7:25 PM59 °FPassing clouds.10 mph68%30.27 "HgN/A
6:55 PM61 °FPassing clouds.10 mph63%30.27 "HgN/A
6:25 PM61 °FPassing clouds.12 mph59%30.27 "HgN/A
5:55 PM63 °FPassing clouds.12 mph56%30.24 "HgN/A
5:25 PM63 °FPassing clouds.12 mph59%30.24 "HgN/A
4:55 PM63 °FPassing clouds.12 mph59%30.24 "HgN/A
4:25 PM63 °FPassing clouds.13 mph59%30.24 "HgN/A
3:55 PM63 °FPassing clouds.13 mph64%30.21 "HgN/A
3:25 PM63 °FPassing clouds.15 mph64%30.21 "HgN/A
2:55 PM61 °FPassing clouds.15 mph63%30.21 "HgN/A
2:25 PM63 °FScattered clouds.16 mph64%30.18 "HgN/A
1:55 PM61 °FPassing clouds.16 mph68%30.18 "HgN/A
1:25 PM59 °FScattered clouds.18 mph72%30.15 "HgN/A
12:55 PM59 °FScattered clouds.17 mph68%30.15 "HgN/A
12:25 PM61 °FScattered clouds.18 mph63%30.12 "HgN/A
11:55 AM61 °FPassing clouds.20 mph68%30.12 "HgN/A
11:25 AM59 °FPassing clouds.20 mph68%30.09 "HgN/A
10:55 AM59 °FScattered clouds.21 mph72%30.09 "HgN/A
10:25 AM59 °FScattered clouds.21 mph68%30.07 "HgN/A
9:55 AM57 °FPassing clouds.22 mph72%30.07 "HgN/A
9:25 AM57 °FPassing clouds.20 mph72%30.04 "HgN/A
8:55 AM57 °FPassing clouds.22 mph72%30.04 "HgN/A
8:25 AM57 °FPassing clouds.21 mph72%30.01 "HgN/A
7:55 AM57 °FPassing clouds.18 mph77%30.01 "HgN/A
7:25 AM57 °FPassing clouds.16 mph72%29.98 "HgN/A
6:55 AM55 °FPassing clouds.15 mph82%29.98 "HgN/A
6:25 AM55 °FScattered clouds.14 mph82%29.95 "HgN/A
5:55 AM55 °FPassing clouds.16 mph82%29.95 "HgN/A
5:25 AM55 °FPassing clouds.17 mph82%29.92 "HgN/A
4:55 AM55 °FPassing clouds.17 mph82%29.92 "HgN/A
4:25 AM55 °FPassing clouds.17 mph82%29.92 "HgN/A
3:55 AM55 °FPassing clouds.16 mph82%29.92 "HgN/A
3:25 AM57 °FPassing clouds.20 mph77%29.89 "HgN/A
2:55 AM57 °FPartly cloudy.21 mph77%29.89 "HgN/A
2:25 AM57 °FPassing clouds.18 mph77%29.89 "HgN/A
1:55 AM57 °FPassing clouds.21 mph77%29.89 "HgN/A
1:25 AM57 °FPassing clouds.20 mph77%29.86 "HgN/A
12:55 AM59 °FPassing clouds.20 mph72%29.86 "HgN/A
12:25 AM59 °FPassing clouds.24 mph72%29.86 "HgN/A
11:55 PM
Tue, Jun 2
61 °FPassing clouds.28 mph68%29.83 "HgN/A
11:25 PM61 °FPassing clouds.28 mph68%29.83 "HgN/A
Weather by CustomWeather, © 2015

See weather overviewHow to use our weather pages